Location: �quirre
(50.4736°N, 2.2351°E)
Time: 16:32:49
(UTC+00:00)

USA 267 - Pass Details

Date: 07 August 2020
Orbit: 1102 x 1106 km, 123.0° (Epoch: 18 September)

Event Time Altitude Azimuth Distance (km) Brightness Sun altitude
Rises 02:13:28 0° 119° (ESE) 3,913 6.2 -16.8°
Reaches altitude 10° 02:15:57 10° 120° (ESE) 2,957 5.6 -16.6°
Maximum altitude 02:22:30 88° 211° (SSW) 1,109 3.2 -16.0°
Drops below altitude 10° 02:29:05 10° 301° (WNW) 2,968 5.5 -15.3°
Sets 02:31:34 0° 302° (WNW) 3,929 6.1 -15.1°
